Flag for U.S.A. Weather past 2 weeks in Chicago, Illinois, U.S.A.

Now
41 °F

Partly sunny.


Feels Like: 34 °F
Forecast: 35 / 44 °F
Wind: 13 mph from Southwest

Location: Chicago Midway Airport

Current Time: Dec 25, 2014 at 1:22:14 PM

Latest Report: Dec 25, 2014 at 12:53 PM


Visibility: 10 mi

Pressure: 29.98 "Hg

Humidity: 67%

Dew point: 31 °F

Location of ChicagoLocation

Historic Weather in Chicago — Graph

°F

Chicago temperature yesterday

Maximum temperature yesterday: 43 °F (at 12:53 AM)
Minimum temperature yesterday: 38 °F (at 6:53 PM)
Average temperature yesterday: 40 °F

Past Weeks' High & Low Weather Summary

 TemperatureHumidityPressure
High53 °F (Dec 14, 11:53 AM)97% (Dec 14, 11:53 PM)30.37 "Hg (Dec 14, 11:53 PM)
Low25 °F (Dec 12, 2:53 AM)59% (Dec 23, 12:53 PM)29.49 "Hg (Dec 24, 1:53 PM)
Average37 °F79%30.08 "Hg
* Reported Dec 10 11:53 AM — Dec 25 11:53 AM, Chicago, Weather by CustomWeather, © 2014

Note: Actual official high and low records may vary slightly from our data, if they occured in-between our weather recording intervals... More about our weather records

Advertising

Chicago weather history for previous 24 hours

 ConditionsComfort  
Time TempWeatherWind HumidityBarometerVisibility
11:53 AM
Dec 25
40 °FPartly sunny.16 mph68%29.98 "Hg10 mi
10:53 AM38 °FOvercast.20 mph70%29.99 "Hg10 mi
9:53 AM37 °FOvercast.17 mph73%29.99 "Hg10 mi
8:53 AM36 °FOvercast.17 mph75%29.95 "Hg10 mi
7:53 AM36 °FOvercast.15 mph75%29.93 "Hg10 mi
6:53 AM35 °FOvercast.12 mph78%29.89 "Hg10 mi
5:53 AM36 °FMostly cloudy.10 mph75%29.87 "Hg10 mi
4:53 AM36 °FMostly cloudy.15 mph79%29.85 "Hg10 mi
3:53 AM37 °FOvercast.10 mph79%29.81 "Hg10 mi
2:53 AM38 °FOvercast.13 mph79%29.78 "Hg10 mi
1:53 AM38 °FOvercast.12 mph83%29.74 "Hg10 mi
12:53 AM38 °FMostly cloudy.15 mph79%29.69 "Hg10 mi
11:53 PM
Dec 24
38 °FOvercast.15 mph83%29.67 "Hg10 mi
10:53 PM38 °FOvercast.14 mph83%29.64 "Hg10 mi
9:53 PM38 °FOvercast.12 mph86%29.61 "Hg10 mi
8:53 PM38 °FOvercast.13 mph83%29.59 "Hg10 mi
7:53 PM38 °FOvercast.10 mph86%29.57 "Hg9 mi
6:53 PM38 °FLow clouds.10 mph90%29.56 "Hg9 mi
5:53 PM39 °FDrizzle. Mostly cloudy.13 mph86%29.54 "Hg8 mi
4:53 PM39 °FLight rain. Fog.6 mph86%29.53 "Hg6 mi
3:53 PM40 °FLight rain. Cloudy.12 mph80%29.52 "Hg10 mi
2:53 PM41 °FCloudy.9 mph80%29.50 "Hg10 mi
1:53 PM41 °FOvercast.9 mph80%29.49 "Hg10 mi
Weather by CustomWeather, © 2014

See weather overviewHow to use our weather pages